Theta_e
347 348 349 348 348 348 347 347 346 344 343 344 345 345 345 345 345 345 346 347 349 349 349 346 343 341 340 340 341 341 342 342 342 343 344 344 344 344 344 345 344 341 335 331 328 327 328 329 329 328 325 323 323 325 327 325 321 319 320 320 322 324 325
347 347 348 349 348 348 348 347 346 345 344 344 344 345 346 345 345 344 345 346 348 349 349 346 342 340 339 339 340 341 341 341 340 340 342 342 342 341 342 343 342 338 332 327 326 327 327 326 325 324 324 324 322 322 323 322 320 318 318 319 321 323 324
346 346 347 347 347 347 347 346 346 346 345 344 344 345 345 345 344 343 343 345 347 348 349 347 342 339 338 339 339 339 340 339 338 339 340 339 339 340 342 343 342 337 330 326 326 326 325 322 321 321 321 321 320 319 320 319 318 318 318 319 320 322 324
344 345 345 345 346 346 346 346 345 346 345 344 344 344 345 345 344 343 343 344 346 348 349 347 342 338 336 337 338 337 338 337 337 338 337 336 336 338 342 344 343 335 327 324 323 323 321 320 320 321 320 319 318 317 317 317 317 318 319 320 320 321 323
344 343 344 344 345 345 345 346 346 346 345 344 344 344 344 344 344 344 344 344 345 347 348 348 345 340 336 336 335 334 335 336 336 335 335 334 334 337 342 346 344 335 326 322 321 319 318 318 320 320 319 319 317 316 315 316 316 318 319 320 320 321 322
344 343 344 343 344 344 344 345 346 346 345 345 344 344 344 345 345 345 345 344 345 346 348 349 347 342 336 334 333 332 333 335 335 335 333 332 335 339 342 344 344 338 328 322 320 318 316 317 318 319 319 318 317 316 315 315 317 318 320 321 322 322 321
344 342 343 342 343 344 344 345 346 346 345 345 345 344 344 345 346 345 345 345 344 345 347 348 347 344 339 335 332 332 332 333 334 334 333 333 337 340 343 346 346 339 330 324 320 318 317 317 317 318 318 317 315 315 315 316 318 320 322 324 324 323 321
341 341 341 342 342 342 344 344 345 345 346 345 345 345 345 345 346 346 346 345 344 345 346 347 348 345 342 338 335 333 331 332 334 334 334 334 338 343 346 347 343 332 324 322 320 318 317 317 318 319 317 316 315 314 315 317 319 322 324 326 325 323 322
341 340 340 341 342 343 344 344 345 345 345 345 345 345 345 345 346 345 346 345 345 345 345 346 347 345 343 342 339 335 333 332 332 334 337 339 344 348 348 346 340 328 320 320 319 316 316 316 318 319 317 315 314 315 316 318 320 323 326 326 325 324 322
339 339 340 341 343 344 345 345 345 345 345 345 345 345 346 345 346 345 345 346 346 346 346 346 347 346 345 344 342 340 337 334 335 338 340 342 344 347 347 347 346 336 323 319 318 316 316 316 317 318 317 315 315 317 318 319 321 323 325 325 325 323 321
339 339 340 342 343 343 344 345 345 345 345 346 346 346 346 345 345 346 346 346 346 347 347 347 348 347 346 346 346 344 341 341 344 342 338 337 338 342 346 347 348 342 327 319 319 318 315 316 317 317 317 316 317 319 320 320 321 323 324 324 323 322 321
339 340 340 342 342 343 344 344 345 345 345 346 346 346 346 346 346 346 346 347 347 347 347 347 348 347 348 348 348 347 347 348 349 342 333 332 333 337 343 345 347 345 332 320 319 318 315 316 317 317 317 317 319 320 320 320 321 322 323 323 322 321 321
340 340 340 341 342 342 343 344 345 346 346 346 346 346 346 346 346 347 347 347 347 347 348 348 348 348 348 349 350 352 352 350 348 340 331 328 329 332 336 340 345 344 331 323 321 317 317 320 318 317 317 318 319 320 320 321 321 322 323 323 323 322 321
340 340 340 342 342 342 343 343 345 345 346 346 346 346 346 346 347 347 347 346 347 348 348 348 349 349 350 353 354 355 354 351 348 344 336 328 328 331 333 334 341 340 329 323 323 318 318 323 321 319 319 319 319 320 321 322 322 323 324 324 323 322 321
341 341 341 341 342 342 342 342 343 345 345 346 346 346 347 347 347 348 347 347 347 348 349 350 351 352 354 356 356 355 355 353 352 351 347 339 332 331 335 337 341 341 330 323 323 319 318 322 322 320 320 320 320 321 322 323 323 323 324 323 322 322 321
343 342 341 341 342 341 342 342 343 343 344 344 344 345 346 346 347 347 347 348 349 350 352 353 353 354 356 357 357 356 356 355 354 353 351 347 338 330 333 338 343 345 338 326 322 320 318 320 323 321 320 321 322 321 322 323 323 323 323 322 322 322 322
343 343 341 341 341 341 341 342 342 343 343 343 343 343 344 344 344 345 347 349 351 351 352 353 354 355 356 357 357 357 356 356 356 354 352 348 342 334 331 332 336 344 345 334 324 322 320 321 323 321 318 321 323 322 322 323 324 325 324 322 323 323 321
342 342 341 341 342 341 341 341 341 342 341 341 342 342 342 343 345 347 349 350 350 349 350 351 352 353 355 357 357 357 357 356 355 356 351 345 342 340 336 331 328 335 345 342 328 322 323 323 323 321 319 323 325 324 324 324 324 327 326 323 323 323 322
341 341 340 340 341 341 340 339 339 339 340 340 341 341 342 344 346 347 347 347 347 348 349 350 351 353 354 356 357 356 356 356 355 354 351 346 343 343 342 339 333 330 337 340 329 322 324 324 322 321 322 325 324 324 326 326 325 328 327 324 322 323 323
342 343 342 342 342 341 339 338 338 339 340 340 341 342 343 345 345 346 345 346 346 347 348 349 350 352 353 355 356 356 356 356 355 353 354 352 350 345 342 343 340 333 334 336 330 327 328 325 321 323 324 322 320 323 326 325 324 327 329 326 324 323 324
342 343 343 343 342 341 339 338 339 341 341 341 343 344 344 344 343 342 342 342 343 344 346 348 348 349 351 353 355 355 355 356 355 355 355 354 352 348 345 344 343 338 337 335 331 331 329 325 322 324 324 319 317 320 322 319 323 329 331 329 327 324 325
339 341 342 342 341 342 341 341 340 341 341 343 343 342 339 337 336 337 337 338 340 341 342 343 343 344 347 350 352 353 354 354 354 354 354 353 352 350 347 344 343 341 337 333 332 331 327 324 323 324 324 321 318 319 319 320 327 331 331 330 329 328 328
337 338 339 341 341 342 342 342 342 343 343 342 339 335 333 332 332 333 335 337 337 337 337 337 338 341 343 346 349 350 351 353 353 353 353 352 351 350 349 345 342 340 336 333 332 328 324 323 323 324 327 326 321 318 319 322 326 328 328 331 332 331 330
337 337 338 339 341 342 342 342 343 342 339 336 333 332 332 333 334 334 335 334 332 331 333 333 334 337 340 344 347 348 350 351 351 352 352 351 349 348 347 343 339 337 335 333 330 326 324 325 324 323 324 324 321 319 320 323 326 328 330 334 335 333 332
338 339 340 340 342 342 342 342 340 337 335 333 333 334 335 334 334 333 332 331 330 330 331 331 332 337 341 344 346 347 349 349 349 350 349 348 347 346 343 340 337 336 335 332 330 327 326 324 322 321 322 322 321 319 320 323 326 328 332 335 334 332 332
342 343 343 343 343 343 341 339 336 334 335 335 334 334 334 332 332 330 329 330 330 330 330 332 336 340 342 343 344 346 347 347 348 348 348 347 346 345 342 339 337 335 334 332 328 326 324 322 320 320 322 322 321 320 323 328 330 331 333 335 335 333 332
343 343 343 343 344 342 339 338 337 337 337 337 335 334 333 331 330 329 329 330 330 332 334 337 339 341 340 341 342 344 345 345 345 346 346 346 345 343 341 338 335 334 332 328 326 325 324 321 321 324 325 325 325 326 329 332 333 333 333 334 334 334 334
342 342 342 343 343 341 340 339 340 339 338 337 337 336 334 333 333 333 333 333 334 336 338 339 339 339 339 340 342 343 342 342 343 344 344 344 344 341 338 336 334 333 330 326 325 325 324 323 325 327 329 330 330 332 333 333 333 333 332 333 333 333 332
337 337 337 339 339 338 339 339 338 338 339 338 338 337 337 337 337 338 338 338 339 339 339 338 339 339 339 342 343 341 340 340 342 343 343 343 342 340 337 335 332 330 328 326 325 324 325 326 328 329 331 332 333 333 333 334 334 334 334 333 332 331 329
331 330 331 332 332 332 333 333 333 333 334 334 336 339 340 340 340 339 340 341 341 339 339 339 339 339 341 343 342 340 339 340 341 342 342 341 340 337 336 334 331 329 328 328 326 325 326 327 330 331 332 333 333 331 330 332 334 334 333 332 331 329 328
329 328 328 328 328 329 329 328 329 329 328 330 333 335 337 338 339 340 341 343 343 340 338 338 338 339 342 343 341 340 339 341 341 341 340 339 338 336 334 332 331 331 331 329 327 327 328 330 331 331 331 331 331 329 330 332 333 332 331 330 329 328 326
327 327 328 328 328 329 328 328 329 329 329 330 331 330 330 330 331 331 332 336 340 340 338 336 337 339 341 342 341 340 340 340 341 340 339 339 337 335 332 331 332 332 330 328 327 329 331 331 330 329 329 328 326 326 330 333 331 329 329 329 328 325 322
326 327 327 328 327 327 327 328 328 328 328 329 328 328 327 326 327 327 326 328 333 337 337 335 335 339 342 342 341 340 340 340 339 339 339 337 333 330 328 328 329 328 327 327 329 330 329 328 327 326 325 324 325 327 330 330 330 329 329 327 324 322 319
326 327 327 327 327 327 327 327 327 326 327 327 327 327 327 327 327 328 326 328 333 337 337 335 337 341 342 340 339 339 339 339 339 339 338 334 330 329 330 330 330 329 329 329 329 327 326 324 324 324 324 325 327 328 328 328 329 329 327 323 321 319 318
327 326 327 328 328 327 326 326 326 326 326 327 327 327 327 327 328 327 327 332 338 339 338 337 339 341 339 338 338 338 338 338 338 337 336 332 328 330 332 332 332 333 331 329 327 325 324 323 322 324 327 328 328 327 327 328 329 326 323 321 320 319 318
330 329 329 329 329 328 329 329 328 327 327 328 327 327 327 328 329 330 333 337 339 338 337 337 337 336 335 335 336 336 337 337 337 337 336 333 330 331 332 332 331 331 329 326 325 323 322 321 323 327 329 328 326 325 327 329 327 324 321 320 320 319 318
333 333 333 332 331 331 331 331 330 328 328 330 330 331 332 333 335 338 339 339 337 335 334 334 332 331 331 333 333 333 334 334 334 335 336 334 333 334 332 330 329 327 325 324 323 321 321 323 325 328 328 326 326 326 326 327 325 322 321 321 320 319 319
329 331 332 333 333 334 333 333 333 332 332 333 333 334 335 336 337 340 339 337 334 334 333 331 330 329 329 330 329 330 330 331 331 333 334 334 335 333 330 328 327 325 324 323 321 320 322 325 327 327 327 326 326 326 326 325 324 322 321 321 320 320 318
Wind_Speed
31 35 36 39 46 47 47 48 45 43 42 41 41 39 39 39 38 38 36 36 37 36 35 35 35 35 35 36 35 35 34 33 33 32 30 29 28 26 23 21 21 21 20 19 18 17 15 14 14 14 12 10 11 11 11 10 9 9 8 8 8 9 10
31 33 34 39 46 49 49 49 47 46 44 42 41 40 40 40 39 39 38 37 38 37 37 36 36 36 37 37 37 36 36 35 34 33 31 31 29 26 24 22 21 20 19 19 17 16 15 15 15 13 12 10 10 11 11 10 10 10 9 9 10 10 11
32 34 37 42 48 51 51 50 49 49 47 45 43 42 41 40 39 39 39 39 39 38 38 38 37 38 38 38 38 38 38 37 36 34 33 32 30 27 24 22 21 20 19 18 17 16 16 16 15 14 13 11 11 12 11 10 11 11 11 11 11 12 12
36 38 42 46 49 52 53 52 51 50 49 47 45 42 41 40 39 39 39 39 39 39 39 39 39 39 39 39 40 40 40 39 37 36 35 33 30 27 25 24 22 21 20 19 18 17 17 17 16 16 14 12 12 13 12 12 12 13 12 12 12 12 13
35 39 41 44 47 50 52 53 53 52 50 48 46 44 42 40 39 39 40 40 40 40 40 40 41 41 41 41 42 42 41 39 38 37 36 34 30 28 27 25 23 22 21 20 19 19 19 18 18 17 16 14 14 14 14 14 14 15 14 13 13 13 13
31 37 40 43 45 48 51 53 53 53 51 49 47 45 42 41 41 40 40 41 42 42 42 42 42 43 43 43 44 43 41 40 39 38 37 35 32 30 28 25 23 21 21 20 20 20 20 20 19 19 17 16 16 16 16 16 16 16 15 14 14 14 14
32 38 40 41 43 47 49 50 51 51 50 49 47 45 43 43 43 41 41 42 43 44 44 44 44 44 44 44 44 43 42 41 41 40 39 37 34 32 29 25 22 20 19 20 21 21 21 21 21 20 19 18 17 18 18 18 17 17 16 14 14 14 14
33 37 39 40 43 45 47 48 49 49 49 48 48 48 47 45 44 43 43 43 43 44 45 45 45 45 45 46 45 44 44 43 43 42 40 39 36 33 30 27 23 21 21 22 22 21 22 22 22 20 20 19 19 19 20 20 19 18 16 15 14 13 13
30 34 36 39 41 43 44 46 46 46 47 47 47 48 48 46 45 44 44 44 44 45 46 45 45 45 46 46 45 45 45 45 44 43 41 39 37 35 33 29 25 24 24 23 22 22 23 24 23 22 21 20 20 21 21 22 21 18 16 15 15 14 13
27 31 34 37 40 41 41 43 44 44 45 45 45 46 47 47 47 45 45 45 45 46 45 45 45 46 46 46 46 45 46 46 45 42 39 38 38 38 35 31 27 26 25 23 21 22 25 26 24 23 22 21 22 22 23 23 21 17 16 16 15 15 14
25 28 32 36 38 39 40 41 41 42 42 43 43 44 45 47 48 47 47 46 46 46 46 45 45 46 47 46 46 47 47 47 44 41 40 41 42 42 37 32 30 27 24 23 22 22 25 27 26 24 23 23 23 24 24 23 20 17 16 16 16 15 14
24 27 32 35 37 38 39 39 39 39 40 40 41 41 42 44 46 47 48 47 47 46 46 46 46 47 48 46 47 48 47 45 45 44 45 46 46 44 39 34 32 28 25 24 23 23 26 28 27 24 24 24 24 24 24 22 19 17 16 16 16 16 16
23 28 32 34 36 36 36 37 38 37 38 38 38 39 38 40 42 45 46 46 47 46 46 47 47 48 49 48 48 48 47 48 51 51 50 51 51 48 43 39 35 32 29 28 27 27 27 28 27 25 24 25 25 25 24 21 19 18 17 16 17 17 17
21 26 30 32 35 35 35 37 37 37 37 36 36 36 36 37 39 41 42 43 44 46 46 47 48 48 48 48 46 47 49 53 56 54 54 55 54 50 47 42 38 35 33 31 31 31 30 28 26 25 24 25 26 25 23 21 20 19 18 17 18 18 18
23 26 30 34 36 36 36 36 36 36 35 34 35 35 34 36 38 38 39 39 40 43 44 46 47 47 46 44 44 47 50 53 54 53 52 53 52 49 47 42 38 37 37 36 34 33 33 29 25 23 25 26 26 25 23 22 22 20 19 18 18 19 19
23 27 33 36 37 37 37 35 35 34 34 33 33 32 32 33 34 34 34 35 38 40 42 43 45 43 41 41 43 45 47 48 49 49 48 48 50 50 47 42 38 39 41 41 38 36 37 32 24 22 25 26 26 26 24 23 22 20 19 18 18 19 19
25 29 35 38 38 38 36 34 34 34 33 32 30 29 29 29 29 31 33 35 37 38 37 38 39 38 38 39 41 42 43 44 46 47 47 45 46 48 48 46 45 45 44 44 43 41 39 34 26 23 24 25 26 26 24 24 23 21 20 19 18 18 19
30 32 36 37 39 39 36 34 34 33 31 30 29 28 28 28 30 32 33 33 31 30 31 32 33 33 34 36 39 40 40 42 43 44 42 37 36 41 45 49 51 52 50 48 46 45 42 36 28 23 22 23 25 26 25 25 24 22 21 20 19 19 20
34 35 37 40 41 40 37 35 33 31 30 28 27 28 29 29 30 28 24 22 21 21 24 25 26 28 30 32 35 36 37 39 38 38 38 34 33 37 44 49 52 53 54 51 46 43 39 35 30 24 20 23 26 27 27 27 25 24 23 22 21 21 21
32 32 34 37 38 38 37 35 33 31 29 28 29 29 27 23 19 15 13 14 14 16 18 19 20 22 24 27 30 32 34 35 36 36 37 38 38 38 41 47 51 53 54 51 45 39 33 31 32 26 20 24 29 28 28 28 27 26 25 23 22 22 23
28 26 27 28 31 35 36 35 34 32 31 30 28 23 17 12 10 10 10 11 11 11 12 13 14 15 17 21 24 27 30 32 34 36 36 37 39 37 37 42 49 54 53 47 42 38 32 29 30 27 23 28 31 28 29 30 29 27 26 24 23 22 23
26 27 26 23 23 30 34 34 32 30 27 23 18 13 12 13 13 12 11 10 8 7 6 6 7 9 11 15 19 21 25 28 31 33 34 35 37 37 36 39 44 51 51 42 36 37 32 27 28 29 28 30 30 30 32 32 29 28 26 24 23 23 24
17 19 21 19 18 22 25 24 21 18 16 15 16 18 18 17 15 13 11 8 6 5 4 4 4 5 6 9 13 16 19 23 26 29 31 33 34 34 35 38 43 50 50 42 38 40 36 29 30 33 31 30 32 34 33 30 28 27 26 26 26 25 25
12 11 14 15 15 16 17 15 15 17 20 22 22 21 18 16 14 11 9 7 6 5 4 3 2 1 3 6 9 12 15 19 22 25 27 29 31 32 33 36 41 45 46 44 42 41 37 33 36 38 35 33 35 33 31 29 28 28 29 30 29 27 27
12 11 12 13 15 18 20 21 25 27 26 24 21 18 16 14 12 10 9 9 8 6 5 3 2 1 2 5 7 10 13 16 19 21 24 26 28 28 30 33 36 36 38 40 38 36 36 37 39 40 35 32 31 31 30 29 28 29 31 31 28 27 28
14 15 16 19 22 25 28 29 30 28 25 22 19 17 15 13 12 11 11 10 9 8 6 4 3 2 2 4 6 9 11 13 16 19 23 24 25 26 28 32 33 33 34 34 33 32 34 36 36 34 30 28 29 30 29 28 28 29 29 27 26 27 28
21 21 21 22 24 27 29 29 27 24 21 19 17 15 14 12 10 10 10 10 10 9 6 3 2 1 2 4 6 7 8 10 14 18 20 21 21 24 26 27 29 30 32 33 32 31 33 33 31 28 26 25 26 27 26 27 29 28 25 24 25 26 28
31 30 27 25 24 24 25 24 22 19 16 13 11 12 11 9 7 6 7 9 8 5 3 1 1 1 3 4 5 5 5 8 12 14 16 17 19 21 21 21 24 29 33 33 31 30 31 31 27 23 23 22 23 23 23 24 25 24 22 21 22 23 25
34 34 32 29 26 23 22 21 19 16 15 12 10 9 8 6 4 2 2 4 4 3 3 2 1 3 4 4 4 3 4 7 9 10 11 14 17 19 19 20 25 30 30 29 30 30 29 24 20 19 20 20 20 21 22 21 19 19 19 19 19 19 19
32 31 30 29 27 24 22 21 20 17 16 14 11 9 7 6 4 3 2 1 3 4 2 1 3 4 4 4 3 3 4 5 6 7 9 11 14 18 20 24 29 31 29 27 28 27 23 18 18 19 20 18 17 18 18 17 16 17 19 18 16 15 16
30 29 27 26 24 21 20 20 18 16 14 12 11 11 11 9 7 6 5 3 2 2 1 2 3 3 3 3 3 3 4 5 6 7 8 10 14 17 20 24 26 26 26 26 24 21 18 17 18 18 17 15 14 14 15 16 16 17 17 15 14 14 14
25 24 22 21 20 18 16 16 15 13 12 11 11 10 9 9 7 6 5 2 2 2 2 3 3 2 1 3 3 3 5 7 8 8 8 11 14 15 19 23 23 21 23 23 20 17 16 15 14 14 13 13 14 14 15 15 15 15 14 13 14 14 14
18 16 14 14 14 12 10 9 8 8 9 8 6 3 4 5 4 5 6 5 6 6 4 2 2 1 3 4 4 4 6 8 9 10 11 13 14 14 16 21 22 21 21 20 18 17 16 14 14 14 14 14 15 14 12 12 14 15 14 13 13 13 13
13 11 9 8 7 7 7 6 5 6 6 4 3 7 8 8 8 10 10 9 10 9 6 4 3 4 5 5 4 4 7 9 10 12 14 16 16 15 15 17 20 20 20 20 19 17 16 14 14 14 14 13 12 11 11 12 14 15 14 13 13 12 13
10 9 7 6 5 6 7 7 6 5 4 2 4 7 8 8 8 10 11 11 10 8 5 6 6 6 5 5 4 5 7 9 11 14 16 18 19 17 13 14 18 19 19 19 19 17 15 12 11 11 10 9 8 9 11 12 14 14 13 12 12 12 13
6 5 5 5 6 6 6 6 5 5 4 3 3 4 5 6 8 10 10 9 8 7 8 8 7 6 5 5 5 5 6 8 11 15 17 19 20 17 14 14 17 20 20 20 18 16 14 10 9 9 8 8 9 10 11 13 14 13 12 12 12 13 14
4 3 3 2 3 4 3 4 5 6 6 6 6 5 5 6 8 9 9 9 10 10 10 9 7 7 7 7 6 6 6 8 10 13 17 19 19 17 15 16 20 22 20 17 13 12 10 9 9 10 10 11 11 12 13 14 14 13 13 13 13 14 15
6 5 4 2 1 1 1 2 4 6 7 7 7 6 5 4 5 7 10 11 12 12 12 10 8 8 9 10 9 7 8 9 9 11 15 18 19 17 15 17 22 22 16 11 9 8 9 10 11 12 12 13 13 13 14 14 14 14 14 13 13 14 15
Wind_Direction
212 216 217 220 224 225 227 229 228 228 229 229 229 228 227 228 228 228 228 227 227 227 227 228 228 228 228 229 230 230 231 231 231 231 232 233 234 236 240 244 247 249 250 250 251 252 253 253 250 249 245 240 236 232 231 233 236 238 239 242 241 238 235
210 212 212 217 223 225 228 229 229 228 228 228 229 228 228 227 227 227 227 227 226 226 227 228 228 228 229 230 231 231 231 230 230 230 231 232 232 233 236 240 244 248 250 250 252 252 251 250 247 243 239 237 232 225 224 231 238 239 240 242 242 239 238
207 209 210 216 221 224 226 228 229 229 228 228 228 228 228 227 226 226 226 226 226 227 227 228 229 229 230 231 232 233 231 230 229 229 230 231 231 232 234 237 241 245 248 248 248 248 248 248 244 240 237 236 231 225 223 230 237 238 240 240 241 242 243
210 211 214 219 222 223 225 226 226 227 228 228 227 226 227 226 225 225 226 227 228 228 227 228 229 229 230 231 232 233 231 230 229 229 230 230 230 231 234 236 238 241 243 243 243 244 246 246 242 240 240 237 231 227 226 230 234 235 235 235 239 243 247
212 212 214 219 220 221 224 225 225 225 226 227 227 226 226 226 226 226 228 229 230 230 229 229 230 230 230 231 232 232 231 231 230 230 230 229 229 231 233 236 239 242 243 242 241 243 245 245 242 242 243 240 234 230 229 231 232 232 231 233 238 241 244
208 209 212 217 218 221 223 223 224 224 224 226 227 227 226 226 226 227 229 230 230 231 231 231 232 232 232 232 232 232 232 232 232 232 232 230 229 231 233 235 239 244 246 243 243 245 246 246 246 247 247 243 236 233 233 233 232 233 233 236 240 241 241
208 210 213 217 219 221 222 221 222 223 224 225 226 228 227 226 226 226 228 230 230 231 231 231 232 232 233 233 234 234 233 233 232 232 233 232 232 233 235 236 239 246 250 249 247 249 250 250 248 247 247 243 236 233 234 235 234 235 237 241 245 244 242
215 214 215 219 220 221 221 220 220 221 223 224 225 227 228 227 227 226 226 229 230 231 232 233 233 233 234 235 235 235 235 234 233 233 234 234 234 235 236 236 237 240 244 248 250 252 253 253 250 247 245 240 234 232 234 234 235 236 239 245 248 247 245
219 219 220 221 220 220 220 219 219 220 222 223 224 225 227 228 228 227 227 228 229 231 233 233 234 235 236 236 237 237 237 237 237 236 236 237 238 239 237 235 234 235 238 242 247 252 254 252 249 247 245 239 234 232 233 234 233 236 241 247 250 249 247
220 221 220 219 218 218 219 219 219 220 222 223 223 225 226 228 229 230 229 229 230 232 233 234 236 237 238 239 239 239 239 240 240 238 238 239 241 241 239 237 236 237 238 240 244 249 252 251 248 246 243 238 235 233 231 232 233 236 243 248 250 250 248
221 218 216 216 215 216 218 219 220 221 222 223 223 224 226 228 230 230 231 232 232 233 234 235 237 239 240 240 241 242 243 242 240 238 237 238 240 240 239 237 238 239 239 240 243 249 252 250 246 243 239 236 235 234 231 231 233 237 243 250 252 251 248
220 215 214 214 214 215 217 219 221 221 221 222 223 223 225 227 230 231 233 234 235 236 237 238 238 240 241 241 242 244 243 240 238 237 235 235 238 239 238 236 237 238 239 241 243 246 250 251 246 240 238 237 234 232 232 232 234 238 242 249 252 251 250
221 216 215 213 213 214 215 218 220 220 220 222 223 224 225 227 230 232 234 236 237 238 240 241 242 243 243 243 243 242 240 239 241 240 234 231 233 235 234 234 235 232 232 237 240 238 241 247 247 241 237 237 235 232 232 233 236 238 242 246 250 252 253
220 215 213 213 213 213 215 217 218 219 220 221 222 225 226 227 230 233 235 237 239 240 242 245 246 246 246 245 242 240 241 243 246 244 236 231 230 233 234 232 232 231 229 232 235 234 235 240 242 242 239 236 235 234 234 236 238 239 242 246 250 254 255
213 210 210 211 212 214 216 217 218 219 220 221 223 225 226 228 230 233 236 239 240 242 243 246 247 248 248 245 243 244 246 248 248 248 244 233 228 233 238 233 232 233 231 231 233 232 234 235 231 234 240 238 236 236 235 237 239 241 243 248 252 255 257
207 207 210 212 212 213 215 218 219 220 220 221 223 225 227 229 231 233 236 238 240 242 242 244 248 250 248 247 247 249 250 251 252 252 248 235 223 227 236 237 238 239 234 232 233 231 231 230 225 228 237 238 238 238 238 239 242 244 246 250 254 257 257
206 208 212 214 214 213 214 217 219 220 221 222 223 224 227 230 232 235 236 236 239 242 244 246 251 252 250 248 250 251 251 253 253 254 252 238 220 219 228 232 235 241 238 232 232 231 226 223 221 227 233 235 238 241 242 244 245 248 251 253 255 257 254
209 212 214 215 216 214 213 215 218 220 221 221 223 225 228 230 232 233 234 238 244 249 251 253 255 256 253 250 250 252 253 254 257 257 251 233 210 213 226 229 229 235 236 231 229 230 225 220 220 224 229 233 239 243 246 248 250 251 254 254 254 255 252
214 214 213 215 216 214 211 212 216 218 219 222 224 225 227 230 233 237 241 248 254 255 255 257 259 259 256 252 252 254 257 257 256 252 246 237 227 225 227 228 228 231 232 229 227 226 222 217 215 219 225 230 235 242 248 252 253 253 255 255 253 252 251
220 218 217 219 219 215 212 212 215 217 218 221 223 225 230 233 237 243 245 246 248 248 251 256 259 259 258 255 255 257 258 257 253 251 253 254 251 241 230 228 228 228 228 227 224 220 216 212 212 217 224 225 228 239 247 248 250 253 255 257 255 252 251
226 224 224 225 222 217 213 213 215 217 217 220 224 227 229 222 211 209 209 214 222 230 240 249 254 258 260 257 257 258 258 257 255 257 260 260 256 249 241 235 230 224 223 222 217 212 209 210 214 218 221 219 223 233 240 241 248 254 256 256 255 252 251
235 232 232 234 229 223 219 215 216 219 220 221 217 198 179 171 170 174 179 184 190 200 217 233 245 253 256 256 257 259 259 260 260 259 260 260 257 253 248 241 231 224 222 218 212 209 208 209 213 215 218 220 221 225 231 238 249 254 252 253 255 253 252
240 239 239 241 237 230 226 220 215 211 203 187 167 156 154 156 157 160 162 161 157 157 175 200 222 238 247 253 258 261 262 264 264 263 262 261 260 259 255 244 229 222 220 216 211 212 212 212 211 210 214 220 219 220 228 239 247 247 247 252 256 256 257
216 223 229 228 218 210 208 198 176 161 156 152 151 152 154 154 153 149 143 139 136 137 147 155 171 213 251 258 261 267 269 268 268 269 268 264 261 259 252 236 221 215 214 213 213 214 216 217 214 208 209 214 217 221 233 242 244 245 252 256 255 256 261
183 183 190 191 181 171 165 157 149 145 146 147 150 155 156 154 150 146 145 147 149 151 155 159 166 193 255 268 272 274 272 272 274 271 265 260 257 252 239 224 215 212 211 213 216 217 217 215 210 205 206 213 220 226 235 240 242 248 256 259 256 257 263
149 150 152 153 151 148 146 145 145 146 149 150 151 155 156 153 153 157 161 163 171 180 185 188 195 219 262 277 283 281 277 278 276 266 258 256 257 252 237 222 216 216 215 212 210 210 209 205 203 205 213 222 226 230 238 247 253 257 259 259 257 260 262
121 122 126 133 139 143 143 143 145 147 148 150 154 156 155 154 159 171 181 189 196 201 204 205 201 239 282 294 296 293 290 282 269 259 257 259 259 250 233 219 215 215 211 205 203 202 201 201 204 213 225 232 234 239 250 261 268 272 268 262 262 263 263
106 105 106 110 118 126 129 131 134 136 134 135 143 152 156 159 167 186 208 219 221 215 208 203 200 251 286 302 305 298 284 272 264 258 255 256 252 238 220 209 210 209 205 202 201 199 199 204 212 224 234 241 245 252 261 265 270 273 267 259 263 266 266
102 103 104 104 104 107 109 107 106 106 105 104 109 124 138 147 151 166 236 243 226 193 173 186 241 277 290 294 292 282 266 261 258 252 247 246 238 224 209 202 201 200 200 202 201 198 201 211 227 241 247 251 253 256 261 268 274 271 263 261 265 266 264
93 97 101 102 102 106 108 103 95 90 89 89 88 89 89 86 79 67 61 158 177 169 172 243 277 287 292 283 265 249 245 247 240 232 235 231 217 209 210 207 200 197 200 202 200 200 209 225 240 248 250 250 249 250 259 273 277 269 264 265 264 257 255
86 87 89 92 95 100 106 106 101 97 93 87 82 79 75 66 56 52 56 79 143 169 225 291 300 304 292 257 233 222 222 223 217 215 221 215 202 203 209 205 196 196 202 201 198 206 222 236 241 241 240 242 245 252 266 277 275 265 261 255 247 246 253
88 86 86 87 87 88 94 101 104 104 102 96 91 82 60 39 30 24 16 357 259 254 291 306 313 318 252 206 195 193 203 208 206 201 204 208 208 211 213 206 196 194 197 197 202 215 225 229 227 223 224 235 247 259 269 273 266 256 245 235 236 248 263
91 89 88 87 84 84 88 93 102 118 128 125 116 83 2 352 339 314 309 282 247 245 252 260 275 235 184 182 173 178 195 203 203 198 198 202 201 196 199 201 199 197 197 202 208 211 206 203 204 209 222 240 253 261 261 255 245 235 226 227 241 257 270
83 82 83 82 86 97 104 104 117 149 164 186 254 265 270 274 269 271 272 252 235 235 228 204 182 165 166 161 151 176 195 201 205 204 201 197 188 180 183 191 194 199 204 205 204 200 196 200 210 222 235 246 252 253 248 239 228 220 220 233 249 265 277
78 79 84 90 109 128 133 136 148 171 192 253 268 250 251 255 245 243 246 236 228 222 192 156 145 147 151 145 153 186 202 206 210 212 208 198 190 190 200 202 198 199 200 197 197 202 208 216 227 232 235 235 232 237 241 234 221 218 228 244 257 273 286
77 82 91 111 135 143 137 127 126 140 148 148 173 206 234 238 224 223 226 214 194 171 145 130 128 135 140 142 158 182 201 210 214 217 215 209 206 212 228 221 201 193 191 192 200 214 224 230 227 215 211 217 225 229 228 222 220 226 239 252 265 280 289
71 69 74 106 143 151 141 124 126 141 159 174 189 204 221 227 218 212 200 176 155 141 128 117 114 124 132 139 148 164 187 203 212 215 213 214 220 229 233 216 195 188 191 200 216 230 233 227 217 209 212 224 229 228 222 221 227 236 245 255 270 282 288
65 59 51 53 84 122 176 192 191 187 188 200 209 208 211 209 193 185 177 162 149 138 125 110 104 115 130 140 147 161 183 193 204 212 213 217 223 227 222 205 195 196 205 225 246 243 230 222 219 218 223 230 233 233 230 229 235 242 248 259 274 283 287